This is the latest recevied weather packets stored in our database for station/object K0FJ-1. If no packets are shown the sender has not sent any weather packets the latest 10 day(s).
| Time | Temp. | Humidity | Pressure | Rain* | Wind** | Luminosity | Snow |
|---|---|---|---|---|---|---|---|
| 1787769003 | 29.44° C | 55% | 1023.1 hPa | 0 mm | - | - | - |
| 1787768703 | 28.89° C | 58% | 1023.3 hPa | 0 mm | - | - | - |
| 1787768403 | 28.89° C | 57% | 1023.4 hPa | 0 mm | - | - | - |
| 1787768103 | 28.89° C | 58% | 1023.5 hPa | 0 mm | - | - | - |
| 1787767803 | 28.33° C | 60% | 1023.5 hPa | 0 mm | - | - | - |
| 1787767503 | 28.89° C | 56% | 1023.6 hPa | 0 mm | - | - | - |
| 1787767203 | 28.89° C | 56% | 1023.7 hPa | 0 mm | - | - | - |
| 1787766903 | 28.89° C | 57% | 1023.7 hPa | 0 mm | - | - | - |
| 1787766603 | 28.89° C | 55% | 1023.7 hPa | 0 mm | - | - | - |
| 1787766303 | 28.89° C | 58% | 1023.6 hPa | 0 mm | - | - | - |
| 1787766003 | 28.89° C | 63% | 1023.6 hPa | 0 mm | - | - | - |
| 1787765703 | 28.89° C | 56% | 1023.6 hPa | 0 mm | - | - | - |
| 1787765403 | 28.89° C | 60% | 1023.7 hPa | 0 mm | - | - | - |
| 1787765103 | 28.33° C | 58% | 1023.8 hPa | 0 mm | - | - | - |
| 1787764803 | 27.78° C | 61% | 1023.9 hPa | 0 mm | - | - | - |
| 1787764503 | 27.78° C | 62% | 1023.8 hPa | 0 mm | - | - | - |
| 1787764203 | 27.22° C | 62% | 1023.7 hPa | 0 mm | - | - | - |
| 1787763903 | 26.67° C | 63% | 1023.8 hPa | 0 mm | - | - | - |
| 1787763603 | 26.67° C | 63% | 1023.9 hPa | 0 mm | - | - | - |
| 1787763303 | 27.22° C | 61% | 1024 hPa | 0 mm | - | - | - |
| 1787763003 | 27.22° C | 62% | 1023.9 hPa | 0 mm | - | - | - |
| 1787762703 | 26.67° C | 62% | 1023.9 hPa | 0 mm | - | - | - |
| 1787762403 | 27.22° C | 63% | 1023.9 hPa | 0 mm | - | - | - |
| 1787762103 | 27.22° C | 61% | 1023.8 hPa | 0 mm | - | - | - |
| 1787761803 | 27.22° C | 62% | 1023.7 hPa | 0 mm | - | - | - |
* Rain latest hour (hover to see other rain measurements)
** Current wind speed in m/s (hover to see current wind gust speed)